This is the latest recevied weather packets stored in our database for station/object MKSRDG. If no packets are shown the sender has not sent any weather packets the latest 10 day(s).
| Time | Temp. | Humidity | Pressure | Rain* | Wind** | Luminosity | Snow |
|---|---|---|---|---|---|---|---|
| 1777740894 | 8.89° C | 94% | 1014.5 hPa | 0 mm | - | 165 W/m² | - |
| 1777739994 | 8.89° C | 94% | 1014.6 hPa | 0 mm | - | 98 W/m² | - |
| 1777739094 | 8.33° C | 94% | 1014.6 hPa | 0 mm | - | 163 W/m² | - |
| 1777738194 | 8.89° C | 94% | 1014.7 hPa | 0 mm | - | 134 W/m² | - |
| 1777737294 | 8.33° C | 94% | 1014.8 hPa | 0 mm | - | 137 W/m² | - |
| 1777736394 | 8.33° C | 94% | 1014.8 hPa | 0 mm | - | 127 W/m² | - |
| 1777735494 | 8.33° C | 94% | 1014.8 hPa | 0 mm | - | 69 W/m² | - |
| 1777734673 | 8.33° C | 94% | 1014.7 hPa | 0 mm | - | 70 W/m² | - |
| 1777734595 | 8.33° C | 94% | 1014.7 hPa | 0 mm | - | 70 W/m² | - |
| 1777733695 | 8.33° C | 94% | 1014.5 hPa | 0 mm | - | 74 W/m² | - |
| 1777732848 | 7.78° C | 95% | 1014.6 hPa | 0 mm | - | 58 W/m² | - |
| 1777732795 | 7.78° C | 95% | 1014.6 hPa | 0 mm | - | 58 W/m² | - |
| 1777731895 | 7.78° C | 95% | 1014.6 hPa | 0 mm | - | 35 W/m² | - |
| 1777730995 | 7.78° C | 95% | 1014.6 hPa | 0 mm | - | 42 W/m² | - |
| 1777730095 | 7.22° C | 95% | 1014.5 hPa | 0 mm | - | 28 W/m² | - |
| 1777729195 | 7.78° C | 95% | 1014.4 hPa | 0 mm | - | 12 W/m² | - |
| 1777728295 | 7.78° C | 95% | 1014.4 hPa | 0 mm | - | 7 W/m² | - |
| 1777727395 | 7.78° C | 95% | 1014.3 hPa | 0 mm | - | 0 W/m² | - |
| 1777726495 | 7.78° C | 95% | 1014.4 hPa | 0 mm | - | 0 W/m² | - |
| 1777725595 | 7.78° C | 94% | 1014.5 hPa | 0 mm | - | 0 W/m² | - |
| 1777724695 | 7.78° C | 94% | 1014.4 hPa | 0 mm | - | 0 W/m² | - |
| 1777723795 | 7.78° C | 94% | 1014.4 hPa | 0 mm | - | 0 W/m² | - |
| 1777722895 | 8.33° C | 94% | 1014.4 hPa | 0 mm | - | 0 W/m² | - |
| 1777721995 | 8.33° C | 94% | 1014.5 hPa | 0 mm | - | 0 W/m² | - |
| 1777721095 | 7.78° C | 94% | 1014.5 hPa | 0 mm | - | 0 W/m² | - |
* Rain latest hour (hover to see other rain measurements)
** Current wind speed in m/s (hover to see current wind gust speed)